• In Uzbekistan
  • List of Countries
  • For 7 days
  • Water Temperature
  • Weather Map
  • Weather Widgets
  • user-avatar
    Login

    Hourly Weather Yalcha

    Today, 25 August, Sunday

    Time Temperature Precipitation Wind Pressure Humidity
    00:00 +16°C° 0 mm 1 mps 754 mmHg 81%
    01:00 +15°C° 0 mm 1 mps 754 mmHg 84%
    02:00 +15°C° 0 mm 1 mps 754 mmHg 87%
    03:00 +15°C° 0 mm 1 mps 755 mmHg 88%
    04:00 +15°C° 0 mm 1 mps 755 mmHg 90%
    05:00 +14°C° 0 mm 1 mps 755 mmHg 91%
    06:00 +16°C° 0 mm 1 mps 755 mmHg 87%
    07:00 +18°C° 0 mm 1 mps 755 mmHg 82%
    08:00 +20°C° 0 mm 1 mps 755 mmHg 78%
    09:00 +20°C° 0 mm 2 mps 755 mmHg 73%
    10:00 +23°C° 0 mm 2 mps 755 mmHg 68%
    11:00 +24°C° 0 mm 2 mps 755 mmHg 63%
    12:00 +25°C° 0 mm 2 mps 755 mmHg 61%
    13:00 +25°C° 0 mm 2 mps 755 mmHg 59%
    14:00 +26°C° 0 mm 1 mps 755 mmHg 57%
    15:00 +25°C° 0 mm 1 mps 755 mmHg 60%
    16:00 +25°C° 0 mm 1 mps 755 mmHg 62%
    17:00 +25°C° 0 mm 1 mps 755 mmHg 64%
    18:00 +23°C° 0 mm 2 mps 755 mmHg 70%
    19:00 +20°C° 0 mm 2 mps 755 mmHg 75%
    20:00 +18°C° 0 mm 2 mps 755 mmHg 81%
    21:00 +18°C° 0 mm 2 mps 755 mmHg 82%
    22:00 +17°C° 0 mm 2 mps 755 mmHg 84%
    23:00 +16°C° 0 mm 2 mps 755 mmHg 85%

    Tomorrow, 26 August, Monday

    Time Temperature Precipitation Wind Pressure Humidity
    00:00 +16°C° 0 mm 2 mps 755 mmHg 86%
    01:00 +16°C° 0 mm 2 mps 756 mmHg 88%
    02:00 +15°C° 0 mm 1 mps 756 mmHg 89%
    03:00 +15°C° 0 mm 1 mps 756 mmHg 89%
    04:00 +14°C° 0 mm 1 mps 755 mmHg 90%
    05:00 +14°C° 0 mm 1 mps 755 mmHg 91%
    06:00 +16°C° 0 mm 1 mps 755 mmHg 86%
    07:00 +18°C° 0 mm 1 mps 756 mmHg 81%
    08:00 +20°C° 0 mm 1 mps 756 mmHg 76%
    09:00 +21°C° 0 mm 1 mps 756 mmHg 71%
    10:00 +23°C° 0 mm 2 mps 755 mmHg 65%
    11:00 +24°C° 0 mm 2 mps 755 mmHg 60%
    12:00 +25°C° 0 mm 1 mps 755 mmHg 57%
    13:00 +25°C° 0 mm 1 mps 755 mmHg 54%
    14:00 +26°C° 0 mm 1 mps 755 mmHg 51%
    15:00 +26°C° 0 mm 1 mps 754 mmHg 53%
    16:00 +26°C° 0 mm 1 mps 754 mmHg 54%
    17:00 +25°C° 0 mm 1 mps 754 mmHg 56%
    18:00 +23°C° 0 mm 1 mps 754 mmHg 61%
    19:00 +22°C° 0 mm 1 mps 754 mmHg 67%
    20:00 +20°C° 0 mm 1 mps 753 mmHg 72%
    21:00 +19°C° 0 mm 1 mps 754 mmHg 74%
    22:00 +18°C° 0 mm 1 mps 754 mmHg 76%
    23:00 +18°C° 0 mm 1 mps 754 mmHg 78%

    Day after tomorrow, 27 August, Tuesday

    Time Temperature Precipitation Wind Pressure Humidity
    00:00 +18°C° 0 mm 1 mps 754 mmHg 80%
    01:00 +15°C° 0 mm 0 mps 754 mmHg 81%
    02:00 +15°C° 0 mm 0 mps 753 mmHg 83%
    03:00 +16°C° 0 mm 1 mps 753 mmHg 84%
    04:00 +16°C° 0 mm 1 mps 753 mmHg 84%
    05:00 +16°C° 0 mm 1 mps 753 mmHg 85%
    06:00 +18°C° 0 mm 1 mps 753 mmHg 82%
    07:00 +20°C° 0 mm 1 mps 754 mmHg 79%
    08:00 +21°C° 0 mm 1 mps 754 mmHg 76%
    09:00 +22°C° 0 mm 1 mps 754 mmHg 73%
    10:00 +24°C° 0 mm 1 mps 754 mmHg 69%
    11:00 +25°C° 0 mm 2 mps 754 mmHg 65%
    12:00 +26°C° 0 mm 2 mps 754 mmHg 62%
    13:00 +26°C° 0 mm 2 mps 753 mmHg 59%
    14:00 +27°C° 0 mm 2 mps 753 mmHg 55%
    15:00 +27°C° 0 mm 2 mps 753 mmHg 58%
    16:00 +26°C° 0 mm 2 mps 753 mmHg 61%
    17:00 +26°C° 0 mm 1 mps 753 mmHg 64%
    18:00 +24°C° 0 mm 2 mps 753 mmHg 70%
    19:00 +21°C° 0 mm 2 mps 753 mmHg 75%
    20:00 +20°C° 0 mm 2 mps 753 mmHg 80%
    21:00 +19°C° 0 mm 2 mps 753 mmHg 82%
    22:00 +18°C° 0 mm 2 mps 753 mmHg 84%
    23:00 +17°C° 0 mm 2 mps 753 mmHg 86%

    28 August, Wednesday

    Time Temperature Precipitation Wind Pressure Humidity
    00:00 +17°C° 0 mm 2 mps 753 mmHg 87%
    01:00 +16°C° 0 mm 1 mps 753 mmHg 89%
    02:00 +16°C° 0 mm 1 mps 753 mmHg 90%
    03:00 +16°C° 0 mm 1 mps 753 mmHg 91%
    04:00 +15°C° 0 mm 1 mps 753 mmHg 91%
    05:00 +15°C° 0 mm 1 mps 754 mmHg 92%
    06:00 +16°C° 0 mm 2 mps 754 mmHg 87%
    07:00 +18°C° 0 mm 2 mps 754 mmHg 81%
    08:00 +19°C° 0 mm 2 mps 754 mmHg 76%
    09:00 +20°C° 0 mm 3 mps 754 mmHg 68%
    10:00 +21°C° 0 mm 3 mps 754 mmHg 61%
    11:00 +22°C° 0 mm 3 mps 754 mmHg 54%
    12:00 +24°C° 0 mm 3 mps 754 mmHg 53%
    13:00 +24°C° 0 mm 3 mps 754 mmHg 52%
    14:00 +24°C° 0 mm 3 mps 753 mmHg 51%
    15:00 +24°C° 0 mm 3 mps 753 mmHg 54%
    16:00 +22°C° 0 mm 3 mps 753 mmHg 58%
    17:00 +22°C° 0 mm 3 mps 753 mmHg 61%
    18:00 +20°C° 0 mm 3 mps 753 mmHg 68%
    19:00 +18°C° 0 mm 3 mps 753 mmHg 74%
    20:00 +16°C° 0 mm 3 mps 753 mmHg 80%
    21:00 +16°C° 0 mm 3 mps 753 mmHg 82%
    22:00 +14°C° 0 mm 3 mps 754 mmHg 83%
    23:00 +13°C° 0 mm 3 mps 754 mmHg 85%

    29 August, Thursday

    Time Temperature Precipitation Wind Pressure Humidity
    00:00 +12°C° 0 mm 3 mps 754 mmHg 83%
    01:00 +13°C° 0 mm 2 mps 754 mmHg 81%
    02:00 +12°C° 0 mm 2 mps 754 mmHg 78%
    03:00 +10°C° 0 mm 2 mps 754 mmHg 77%
    04:00 +10°C° 0 mm 2 mps 754 mmHg 76%
    05:00 +9°C° 0 mm 2 mps 754 mmHg 74%
    06:00 +10°C° 0 mm 3 mps 754 mmHg 73%
    07:00 +11°C° 0 mm 3 mps 754 mmHg 71%
    08:00 +12°C° 0 mm 3 mps 754 mmHg 69%
    09:00 +14°C° 0 mm 3 mps 754 mmHg 65%
    10:00 +15°C° 0 mm 4 mps 754 mmHg 61%
    11:00 +18°C° 0 mm 4 mps 754 mmHg 56%
    12:00 +19°C° 0 mm 4 mps 754 mmHg 54%
    13:00 +19°C° 0 mm 4 mps 754 mmHg 52%
    14:00 +20°C° 0 mm 4 mps 753 mmHg 50%
    15:00 +20°C° 0 mm 4 mps 753 mmHg 53%
    16:00 +19°C° 0 mm 3 mps 753 mmHg 56%
    17:00 +19°C° 0 mm 3 mps 753 mmHg 59%
    18:00 +17°C° 0 mm 3 mps 753 mmHg 64%
    19:00 +14°C° 0 mm 3 mps 753 mmHg 69%
    20:00 +13°C° 0 mm 3 mps 753 mmHg 74%
    21:00 +12°C° 0 mm 3 mps 753 mmHg 75%
    22:00 +11°C° 0 mm 3 mps 753 mmHg 77%
    23:00 +11°C° 0 mm 3 mps 753 mmHg 78%

    30 August, Friday

    Time Temperature Precipitation Wind Pressure Humidity
    00:00 +10°C° 0 mm 3 mps 753 mmHg 79%
    01:00 +10°C° 0 mm 3 mps 753 mmHg 80%
    02:00 +10°C° 0 mm 3 mps 753 mmHg 81%
    03:00 +9°C° 0 mm 3 mps 753 mmHg 82%
    04:00 +9°C° 0 mm 3 mps 753 mmHg 83%
    05:00 +9°C° 0 mm 3 mps 752 mmHg 84%
    06:00 +10°C° 0 mm 3 mps 752 mmHg 79%
    07:00 +12°C° 0 mm 3 mps 752 mmHg 74%
    08:00 +13°C° 0 mm 4 mps 752 mmHg 69%
    09:00 +15°C° 0 mm 4 mps 752 mmHg 64%
    10:00 +18°C° 0 mm 4 mps 753 mmHg 59%
    11:00 +19°C° 0 mm 4 mps 753 mmHg 54%
    12:00 +20°C° 0 mm 4 mps 752 mmHg 52%
    13:00 +21°C° 0 mm 4 mps 752 mmHg 50%
    14:00 +22°C° 0 mm 4 mps 752 mmHg 47%
    15:00 +22°C° 0 mm 3 mps 752 mmHg 51%
    16:00 +21°C° 0 mm 3 mps 751 mmHg 54%
    17:00 +21°C° 0 mm 2 mps 751 mmHg 58%
    18:00 +19°C° 0 mm 3 mps 751 mmHg 63%
    19:00 +17°C° 0 mm 3 mps 751 mmHg 67%
    20:00 +14°C° 0 mm 3 mps 751 mmHg 72%
    21:00 +13°C° 0 mm 3 mps 751 mmHg 72%
    22:00 +13°C° 0 mm 3 mps 751 mmHg 72%
    23:00 +12°C° 0 mm 3 mps 751 mmHg 73%
    Show more